Time,TemperatureF,DewpointF,PressureIn,WindDirection,WindDirectionDegrees,WindSpeedMPH,WindSpeedGustMPH,Humidity,HourlyPrecipIn,Conditions,Clouds,dailyrainin,SoftwareType,DateUTC
2013-08-09 00:01:00,74.0,49.0,29.80,NE,55,0.0,5.0,42,0.00,,,0.00,,2013-08-09 06:01:00,
2013-08-09 00:11:00,73.0,50.0,29.81,NE,55,1.0,6.0,45,0.00,,,0.00,,2013-08-09 06:11:00,
2013-08-09 00:21:00,72.0,50.0,29.82,NE,55,3.0,6.0,46,0.00,,,0.00,,2013-08-09 06:21:00,
2013-08-09 00:32:00,72.0,50.0,29.82,NE,55,3.0,6.0,46,0.00,,,0.00,,2013-08-09 06:32:00,
2013-08-09 00:43:00,71.0,50.0,29.82,ENE,59,5.0,10.0,48,0.00,,,0.00,,2013-08-09 06:43:00,
2013-08-09 00:52:00,71.0,50.0,29.83,ENE,62,2.0,11.0,47,0.00,,,0.00,,2013-08-09 06:52:00,
2013-08-09 01:01:00,71.0,50.0,29.83,ENE,62,2.0,11.0,47,0.00,,,0.00,,2013-08-09 07:01:00,
2013-08-09 01:12:00,71.0,50.0,29.83,ENE,63,2.0,9.0,48,0.00,,,0.00,,2013-08-09 07:12:00,
2013-08-09 01:22:00,70.0,50.0,29.84,ENE,64,2.0,8.0,49,0.00,,,0.00,,2013-08-09 07:22:00,
2013-08-09 01:33:00,70.0,50.0,29.84,ENE,64,2.0,8.0,49,0.00,,,0.00,,2013-08-09 07:33:00,
2013-08-09 01:43:00,70.0,50.0,29.84,ENE,64,1.0,8.0,49,0.00,,,0.00,,2013-08-09 07:43:00,
2013-08-09 01:52:00,69.0,50.0,29.85,ENE,64,1.0,7.0,50,0.00,,,0.00,,2013-08-09 07:52:00,
2013-08-09 02:02:00,69.0,50.0,29.85,ENE,64,1.0,7.0,50,0.00,,,0.00,,2013-08-09 08:02:00,
2013-08-09 02:12:00,69.0,51.0,29.85,ENE,63,0.0,2.0,52,0.00,,,0.00,,2013-08-09 08:12:00,
2013-08-09 02:22:00,68.0,51.0,29.85,ENE,63,0.0,4.0,54,0.00,,,0.00,,2013-08-09 08:22:00,
2013-08-09 02:32:00,68.0,51.0,29.85,ENE,63,0.0,4.0,54,0.00,,,0.00,,2013-08-09 08:32:00,
2013-08-09 02:43:00,68.0,51.0,29.86,ENE,63,2.0,8.0,55,0.00,,,0.00,,2013-08-09 08:43:00,
2013-08-09 02:53:00,68.0,51.0,29.86,ENE,63,0.0,4.0,54,0.00,,,0.00,,2013-08-09 08:53:00,
2013-08-09 03:02:00,68.0,51.0,29.86,ENE,63,0.0,4.0,54,0.00,,,0.00,,2013-08-09 09:02:00,
2013-08-09 03:12:00,67.0,50.0,29.87,ENE,63,2.0,4.0,55,0.00,,,0.00,,2013-08-09 09:12:00,
2013-08-09 03:22:00,66.0,51.0,29.87,ENE,63,3.0,8.0,59,0.00,,,0.00,,2013-08-09 09:22:00,
2013-08-09 03:32:00,66.0,51.0,29.87,ENE,63,3.0,8.0,59,0.00,,,0.00,,2013-08-09 09:32:00,
2013-08-09 03:43:00,65.0,51.0,29.88,ENE,63,4.0,9.0,61,0.00,,,0.00,,2013-08-09 09:43:00,
2013-08-09 03:52:00,64.0,52.0,29.88,NE,56,4.0,9.0,64,0.00,,,0.00,,2013-08-09 09:52:00,
2013-08-09 04:01:00,64.0,52.0,29.88,NE,56,4.0,9.0,64,0.00,,,0.00,,2013-08-09 10:01:00,
2013-08-09 04:12:00,63.0,52.0,29.88,NE,49,4.0,9.0,67,0.00,,,0.00,,2013-08-09 10:12:00,
2013-08-09 04:22:00,62.0,52.0,29.89,NE,46,1.0,7.0,69,0.00,,,0.00,,2013-08-09 10:22:00,
2013-08-09 04:32:00,62.0,52.0,29.89,NE,46,1.0,7.0,69,0.00,,,0.00,,2013-08-09 10:32:00,
2013-08-09 04:43:00,62.0,52.0,29.89,NE,46,4.0,8.0,70,0.00,,,0.00,,2013-08-09 10:43:00,
2013-08-09 04:53:00,62.0,52.0,29.88,NE,46,1.0,3.0,69,0.00,,,0.00,,2013-08-09 10:53:00,
2013-08-09 05:01:00,62.0,52.0,29.88,NE,46,1.0,3.0,69,0.00,,,0.00,,2013-08-09 11:01:00,
2013-08-09 05:11:00,63.0,52.0,29.88,NE,46,0.0,6.0,68,0.00,,,0.00,,2013-08-09 11:11:00,
2013-08-09 05:22:00,62.0,52.0,29.89,NE,46,3.0,7.0,69,0.00,,,0.00,,2013-08-09 11:22:00,
2013-08-09 05:33:00,62.0,52.0,29.89,NE,46,3.0,7.0,69,0.00,,,0.00,,2013-08-09 11:33:00,
2013-08-09 05:42:00,61.0,52.0,29.89,NE,46,2.0,7.0,71,0.00,,,0.00,,2013-08-09 11:42:00,
2013-08-09 05:53:00,60.0,51.0,29.89,NE,44,4.0,9.0,71,0.00,,,0.00,,2013-08-09 11:53:00,
2013-08-09 06:02:00,60.0,51.0,29.89,NE,44,4.0,9.0,71,0.00,,,0.00,,2013-08-09 12:02:00,
2013-08-09 06:12:00,60.0,51.0,29.89,NNE,24,6.0,12.0,71,0.00,,,0.00,,2013-08-09 12:12:00,
2013-08-09 06:22:00,60.0,51.0,29.89,NNE,24,4.0,9.0,72,0.00,,,0.00,,2013-08-09 12:22:00,
2013-08-09 06:32:00,60.0,51.0,29.89,NNE,24,4.0,9.0,72,0.00,,,0.00,,2013-08-09 12:32:00,
2013-08-09 06:43:00,59.0,50.0,29.90,NNE,24,3.0,9.0,73,0.00,,,0.00,,2013-08-09 12:43:00,
2013-08-09 06:52:00,59.0,51.0,29.90,NNE,24,1.0,4.0,74,0.00,,,0.00,,2013-08-09 12:52:00,
2013-08-09 07:01:00,59.0,51.0,29.90,NNE,24,1.0,4.0,74,0.00,,,0.00,,2013-08-09 13:01:00,
2013-08-09 07:12:00,59.0,51.0,29.91,NNE,24,4.0,8.0,74,0.00,,,0.00,,2013-08-09 13:12:00,
2013-08-09 07:23:00,60.0,51.0,29.90,NNE,24,4.0,9.0,73,0.00,,,0.00,,2013-08-09 13:23:00,
2013-08-09 07:32:00,60.0,51.0,29.90,NNE,24,4.0,9.0,73,0.00,,,0.00,,2013-08-09 13:32:00,
2013-08-09 07:43:00,60.0,51.0,29.90,NNE,24,5.0,8.0,72,0.00,,,0.00,,2013-08-09 13:43:00,
2013-08-09 07:52:00,61.0,52.0,29.90,NNE,24,4.0,9.0,72,0.00,,,0.00,,2013-08-09 13:52:00,
2013-08-09 08:02:00,61.0,52.0,29.90,NNE,24,4.0,9.0,72,0.00,,,0.00,,2013-08-09 14:02:00,
2013-08-09 08:11:00,62.0,53.0,29.90,NNE,24,4.0,11.0,72,0.00,,,0.00,,2013-08-09 14:11:00,
2013-08-09 08:22:00,62.0,53.0,29.90,NNE,24,4.0,11.0,72,0.00,,,0.00,,2013-08-09 14:22:00,
2013-08-09 08:33:00,62.0,53.0,29.90,NNE,24,4.0,11.0,72,0.00,,,0.00,,2013-08-09 14:33:00,
2013-08-09 08:43:00,64.0,52.0,29.91,NNW,342,7.0,11.0,66,0.00,,,0.00,,2013-08-09 14:43:00,
2013-08-09 08:53:00,65.0,53.0,29.90,NNW,328,5.0,11.0,65,0.00,,,0.00,,2013-08-09 14:53:00,
2013-08-09 09:02:00,65.0,53.0,29.90,NNW,328,5.0,11.0,65,0.00,,,0.00,,2013-08-09 15:02:00,
2013-08-09 09:11:00,66.0,53.0,29.91,NNW,328,3.0,5.0,64,0.00,,,0.00,,2013-08-09 15:11:00,
2013-08-09 09:22:00,66.0,53.0,29.91,NNW,328,4.0,10.0,62,0.00,,,0.00,,2013-08-09 15:22:00,
2013-08-09 09:33:00,66.0,53.0,29.91,NNW,328,4.0,10.0,62,0.00,,,0.00,,2013-08-09 15:33:00,
2013-08-09 09:44:00,68.0,53.0,29.91,NNW,328,2.0,6.0,59,0.00,,,0.00,,2013-08-09 15:44:00,
2013-08-09 09:53:00,69.0,53.0,29.91,NNW,328,2.0,5.0,57,0.00,,,0.00,,2013-08-09 15:53:00,
2013-08-09 10:01:00,69.0,53.0,29.91,NNW,328,2.0,5.0,57,0.00,,,0.00,,2013-08-09 16:01:00,
2013-08-09 10:11:00,69.0,54.0,29.91,NNW,328,2.0,7.0,58,0.00,,,0.00,,2013-08-09 16:11:00,
2013-08-09 10:22:00,69.0,53.0,29.91,NNW,328,4.0,7.0,57,0.00,,,0.00,,2013-08-09 16:22:00,
2013-08-09 10:32:00,69.0,53.0,29.91,NNW,328,4.0,7.0,57,0.00,,,0.00,,2013-08-09 16:32:00,
2013-08-09 10:43:00,68.0,53.0,29.91,NNW,328,5.0,8.0,58,0.00,,,0.00,,2013-08-09 16:43:00,
2013-08-09 10:53:00,69.0,54.0,29.91,NNW,328,4.0,10.0,58,0.00,,,0.00,,2013-08-09 16:53:00,
2013-08-09 11:02:00,69.0,54.0,29.91,NNW,328,4.0,10.0,58,0.00,,,0.00,,2013-08-09 17:02:00,
2013-08-09 11:11:00,69.0,53.0,29.92,NNW,328,2.0,8.0,57,0.00,,,0.00,,2013-08-09 17:11:00,
2013-08-09 11:22:00,69.0,53.0,29.92,NNW,328,3.0,6.0,57,0.00,,,0.00,,2013-08-09 17:22:00,
2013-08-09 11:33:00,69.0,53.0,29.92,NNW,328,3.0,6.0,57,0.00,,,0.00,,2013-08-09 17:33:00,
2013-08-09 11:43:00,69.0,54.0,29.93,NNW,328,2.0,6.0,58,0.00,,,0.00,,2013-08-09 17:43:00,
2013-08-09 11:52:00,69.0,55.0,29.94,NNW,328,1.0,7.0,61,0.00,,,0.00,,2013-08-09 17:52:00,
2013-08-09 12:01:00,69.0,55.0,29.94,NNW,328,1.0,7.0,61,0.00,,,0.00,,2013-08-09 18:01:00,
2013-08-09 12:11:00,69.0,55.0,29.94,NNW,328,2.0,6.0,60,0.00,,,0.00,,2013-08-09 18:11:00,
2013-08-09 12:22:00,69.0,54.0,29.94,NNW,328,1.0,5.0,59,0.00,,,0.00,,2013-08-09 18:22:00,
2013-08-09 12:32:00,69.0,54.0,29.94,NNW,328,1.0,5.0,59,0.00,,,0.00,,2013-08-09 18:32:00,
2013-08-09 12:43:00,70.0,55.0,29.94,NNW,328,1.0,5.0,58,0.00,,,0.00,,2013-08-09 18:43:00,
2013-08-09 12:52:00,70.0,54.0,29.94,NNW,328,1.0,5.0,56,0.00,,,0.00,,2013-08-09 18:52:00,
2013-08-09 13:02:00,70.0,54.0,29.94,NNW,328,1.0,5.0,56,0.00,,,0.00,,2013-08-09 19:02:00,
2013-08-09 13:11:00,70.0,54.0,29.94,NNW,328,4.0,7.0,57,0.00,,,0.00,,2013-08-09 19:11:00,
2013-08-09 13:22:00,70.0,55.0,29.94,NNW,328,2.0,8.0,58,0.00,,,0.00,,2013-08-09 19:22:00,
2013-08-09 13:32:00,70.0,55.0,29.94,NNW,328,2.0,8.0,58,0.00,,,0.00,,2013-08-09 19:32:00,
2013-08-09 13:43:00,69.0,55.0,29.94,NNW,328,2.0,6.0,61,0.00,,,0.00,,2013-08-09 19:43:00,
2013-08-09 13:52:00,69.0,56.0,29.93,NNW,328,0.0,1.0,64,0.00,,,0.00,,2013-08-09 19:52:00,
2013-08-09 14:02:00,69.0,56.0,29.93,NNW,328,0.0,1.0,64,0.00,,,0.00,,2013-08-09 20:02:00,
2013-08-09 14:11:00,69.0,57.0,29.93,NNW,328,1.0,4.0,66,0.00,,,0.00,,2013-08-09 20:11:00,
2013-08-09 14:22:00,68.0,57.0,29.94,NNW,328,3.0,6.0,69,0.00,,,0.00,,2013-08-09 20:22:00,
2013-08-09 14:32:00,68.0,57.0,29.94,NNW,328,3.0,6.0,69,0.00,,,0.00,,2013-08-09 20:32:00,
2013-08-09 14:43:00,67.0,58.0,29.94,NNW,328,2.0,5.0,72,0.00,,,0.00,,2013-08-09 20:43:00,
2013-08-09 14:52:00,67.0,56.0,29.93,NNW,328,0.0,1.0,69,0.00,,,0.00,,2013-08-09 20:52:00,
2013-08-09 15:01:00,67.0,56.0,29.93,NNW,328,0.0,1.0,69,0.00,,,0.00,,2013-08-09 21:01:00,
2013-08-09 15:12:00,68.0,59.0,29.92,NNW,328,0.0,2.0,72,0.00,,,0.00,,2013-08-09 21:12:00,
2013-08-09 15:22:00,70.0,59.0,29.91,NNW,328,0.0,3.0,69,0.00,,,0.00,,2013-08-09 21:22:00,
2013-08-09 15:33:00,70.0,59.0,29.91,NNW,328,0.0,3.0,69,0.00,,,0.00,,2013-08-09 21:33:00,
2013-08-09 15:43:00,71.0,57.0,29.91,NNW,328,0.0,1.0,62,0.00,,,0.00,,2013-08-09 21:43:00,
2013-08-09 15:52:00,73.0,56.0,29.91,NNW,328,0.0,4.0,55,0.00,,,0.00,,2013-08-09 21:52:00,
2013-08-09 16:01:00,73.0,56.0,29.91,NNW,328,0.0,4.0,55,0.00,,,0.00,,2013-08-09 22:01:00,
2013-08-09 16:11:00,73.0,54.0,29.90,NNW,328,0.0,2.0,51,0.00,,,0.00,,2013-08-09 22:11:00,
2013-08-09 16:22:00,73.0,55.0,29.90,NNW,328,0.0,3.0,53,0.00,,,0.00,,2013-08-09 22:22:00,
2013-08-09 16:32:00,73.0,55.0,29.90,NNW,328,0.0,3.0,53,0.00,,,0.00,,2013-08-09 22:32:00,
2013-08-09 16:42:00,74.0,53.0,29.91,NNW,328,0.0,4.0,48,0.00,,,0.00,,2013-08-09 22:42:00,
2013-08-09 16:52:00,74.0,54.0,29.90,NNW,328,0.0,6.0,50,0.00,,,0.00,,2013-08-09 22:52:00,
2013-08-09 17:01:00,74.0,54.0,29.90,NNW,328,0.0,6.0,50,0.00,,,0.00,,2013-08-09 23:01:00,
2013-08-09 17:11:00,73.0,53.0,29.89,NNW,328,0.0,3.0,50,0.00,,,0.00,,2013-08-09 23:11:00,
2013-08-09 17:21:00,73.0,53.0,29.89,NNW,328,0.0,2.0,49,0.00,,,0.00,,2013-08-09 23:21:00,
2013-08-09 17:32:00,73.0,53.0,29.89,NNW,328,0.0,2.0,49,0.00,,,0.00,,2013-08-09 23:32:00,
2013-08-09 17:43:00,74.0,52.0,29.89,NNW,328,0.0,1.0,47,0.00,,,0.00,,2013-08-09 23:43:00,
2013-08-09 17:52:00,74.0,52.0,29.88,NNW,328,0.0,2.0,47,0.00,,,0.00,,2013-08-09 23:52:00,
2013-08-09 18:01:00,74.0,52.0,29.88,NNW,328,0.0,2.0,47,0.00,,,0.00,,2013-08-10 00:01:00,
2013-08-09 18:11:00,73.0,52.0,29.88,NNW,328,0.0,2.0,47,0.00,,,0.00,,2013-08-10 00:11:00,
2013-08-09 18:22:00,73.0,52.0,29.89,NNW,328,2.0,4.0,48,0.00,,,0.00,,2013-08-10 00:22:00,
2013-08-09 18:33:00,73.0,52.0,29.89,NNW,328,2.0,4.0,48,0.00,,,0.00,,2013-08-10 00:33:00,
2013-08-09 18:43:00,73.0,54.0,29.88,NNW,328,2.0,5.0,51,0.00,,,0.00,,2013-08-10 00:43:00,
2013-08-09 18:52:00,73.0,54.0,29.88,NNW,328,2.0,5.0,51,0.00,,,0.00,,2013-08-10 00:52:00,
2013-08-09 19:01:00,73.0,54.0,29.88,NNW,328,2.0,5.0,51,0.00,,,0.00,,2013-08-10 01:01:00,
2013-08-09 19:11:00,72.0,53.0,29.89,NNW,328,4.0,8.0,51,0.00,,,0.00,,2013-08-10 01:11:00,
2013-08-09 19:22:00,72.0,53.0,29.89,NNW,328,4.0,8.0,51,0.00,,,0.00,,2013-08-10 01:22:00,
2013-08-09 19:32:00,72.0,53.0,29.89,NNW,328,4.0,8.0,51,0.00,,,0.00,,2013-08-10 01:32:00,
2013-08-09 19:42:00,71.0,52.0,29.89,NNW,328,4.0,8.0,51,0.00,,,0.00,,2013-08-10 01:42:00,
2013-08-09 19:52:00,71.0,52.0,29.89,NNW,328,4.0,8.0,51,0.00,,,0.00,,2013-08-10 01:52:00,
2013-08-09 20:03:00,71.0,52.0,29.89,NNW,328,4.0,8.0,51,0.00,,,0.00,,2013-08-10 02:03:00,
2013-08-09 20:11:00,71.0,52.0,29.89,NNW,328,4.0,8.0,51,0.00,,,0.00,,2013-08-10 02:11:00,
2013-08-09 20:21:00,71.0,52.0,29.89,NNW,328,4.0,8.0,51,0.00,,,0.00,,2013-08-10 02:21:00,
2013-08-09 20:42:00,71.0,50.0,29.89,NNW,328,3.0,7.0,48,0.00,,,0.00,,2013-08-10 02:42:00,
2013-08-09 20:52:00,69.0,53.0,29.90,NNW,328,0.0,6.0,57,0.00,,,0.00,,2013-08-10 02:52:00,
2013-08-09 21:01:00,69.0,53.0,29.90,NNW,328,0.0,6.0,57,0.00,,,0.00,,2013-08-10 03:01:00,
2013-08-09 21:11:00,69.0,53.0,29.90,NNW,328,0.0,6.0,57,0.00,,,0.00,,2013-08-10 03:11:00,
2013-08-09 21:21:00,69.0,53.0,29.90,NNW,328,1.0,4.0,57,0.00,,,0.00,,2013-08-10 03:21:00,
2013-08-09 21:32:00,69.0,53.0,29.90,NNW,328,1.0,4.0,57,0.00,,,0.00,,2013-08-10 03:32:00,
2013-08-09 21:42:00,69.0,53.0,29.90,NNW,328,1.0,4.0,57,0.00,,,0.00,,2013-08-10 03:42:00,
2013-08-09 21:52:00,69.0,53.0,29.90,NNW,328,1.0,4.0,57,0.00,,,0.00,,2013-08-10 03:52:00,
2013-08-09 22:01:00,67.0,54.0,29.91,NNW,328,0.0,1.0,64,0.00,,,0.00,,2013-08-10 04:01:00,
2013-08-09 22:12:00,67.0,54.0,29.91,NNW,328,0.0,1.0,64,0.00,,,0.00,,2013-08-10 04:12:00,
2013-08-09 22:22:00,67.0,55.0,29.91,NNW,328,0.0,0.0,66,0.00,,,0.00,,2013-08-10 04:22:00,
2013-08-09 22:32:00,67.0,55.0,29.91,NNW,328,0.0,0.0,66,0.00,,,0.00,,2013-08-10 04:32:00,
2013-08-09 22:43:00,67.0,55.0,29.91,NNW,328,0.0,2.0,66,0.00,,,0.00,,2013-08-10 04:43:00,
2013-08-09 22:53:00,66.0,54.0,29.91,NNW,328,2.0,4.0,66,0.00,,,0.00,,2013-08-10 04:53:00,
2013-08-09 23:02:00,66.0,54.0,29.91,NNW,328,2.0,4.0,66,0.00,,,0.00,,2013-08-10 05:02:00,
2013-08-09 23:11:00,65.0,54.0,29.91,NNW,328,2.0,6.0,67,0.00,,,0.00,,2013-08-10 05:11:00,
2013-08-09 23:22:00,65.0,54.0,29.91,NNW,328,0.0,4.0,67,0.00,,,0.00,,2013-08-10 05:22:00,
2013-08-09 23:32:00,65.0,54.0,29.91,NNW,328,0.0,4.0,67,0.00,,,0.00,,2013-08-10 05:32:00,
2013-08-09 23:42:00,65.0,54.0,29.91,NNW,328,0.0,0.0,68,0.00,,,0.00,,2013-08-10 05:42:00,
2013-08-09 23:52:00,64.0,53.0,29.92,NNW,328,0.0,1.0,68,0.00,,,0.00,,2013-08-10 05:52:00,